Location: ??
(35.4032°N, 139.3073°E)
Time: 06:46:44
(UTC+00:00)

Cosmos 1975 - Visible Passes

Search period start: 16 July 2024 00:00
Search period end: 26 July 2024 00:00
Orbit: 510 x 532 km, 82.5° (Epoch: 15 July)

Date Brightness Start Highest point End Pass type
(mag) Time Alt. Az. Time Alt. Az. Time Alt. Az.
16 Jul 5.6 18:00:30 10° ESE 18:02:27 14° E 18:04:23 10° ENE visible
17 Jul 5.7 17:47:55 10° ESE 17:49:14 11° E 17:50:32 10° ENE visible
18 Jul 3.2 19:07:41 10° SSW 19:11:20 41° W 19:14:59 10° N visible
19 Jul 3.0 18:54:17 10° SSW 18:58:01 50° W 19:01:45 10° N visible
20 Jul 2.7 18:41:12 12° SSW 18:44:41 60° W 18:48:28 10° N visible
21 Jul 2.6 18:28:30 17° SSW 18:31:20 72° W 18:35:09 10° N visible
22 Jul 2.6 18:15:44 24° S 18:17:58 87° W 18:21:48 10° N visible
23 Jul 2.7 18:02:55 32° S 18:04:36 79° E 18:08:25 10° N visible
24 Jul 2.9 17:50:04 41° SSE 17:51:12 65° E 17:54:59 10° NNE visible
25 Jul 3.2 17:37:10 46° SE 17:37:49 53° E 17:41:32 10° NNE visible
